Terminal Aerodrome Forecast
Issued by NWS

Home | Current Version | Previous Version | Text Only | Print | Product List | Glossary On
Versions: 1 2 3 4 5 6 7 8 9 10 11 12 13 14 15 16 17 18 19 20 21 22 23 24 25 26 27 28 29 30 31 32 33 34 35 36 37 38 39 40 41 42 43 44 45 46 47 48 49 50
000
FTAK31 PANC 050605 AAA
TAFASD
TAF AMD
PASD 050605Z 0506/0606 VRB06KT 4SM -SHRA FEW004 BKN015 OVC025
      TEMPO 0506/0508 2SM -SNRA BR BKN004
     FM051200 33015KT P6SM VCSH BKN035
     FM051800 33015KT P6SM VCSH SCT035 BKN060
     FM060300 33015KT P6SM SCT035 BKN080
      AMD NOT SKED=

USA.gov is the U.S. government's official web portal to all federal, state and local government web resources and services.